Flag for U.S.A. Weather past 2 weeks in Sacramento, California, U.S.A.

Now
63 °F

Clear.


Feels Like: 63 °F
Forecast: 59 / 84 °F
Wind: 3 mph from South

Location: Sacramento Executive Airport

Current Time: Sep 22, 2014 at 1:35:52 AM

Latest Report: Sep 22, 2014 at 12:53 AM


Visibility: 10 mi

Pressure: 29.95 "Hg

Humidity: 84%

Dew point: 58 °F

Location of SacramentoLocation

Historic Weather in Sacramento — Graph

°F

Sacramento temperature yesterday

Maximum temperature yesterday: 81 °F (at 1:53 PM)
Minimum temperature yesterday: 63 °F (at 6:53 AM)
Average temperature yesterday: 70 °F

Past Weeks' High & Low Weather Summary

 TemperatureHumidityPressure
High102 °F (Sep 12, 3:53 PM)90% (Sep 9, 4:53 AM)29.98 "Hg (Sep 9, 4:53 AM)
Low55 °F (Sep 9, 6:53 AM)12% (Sep 10, 5:53 PM)29.69 "Hg (Sep 13, 6:53 PM)
Average74 °F54%29.82 "Hg
* Reported Sep 6 11:53 PM — Sep 21 11:53 PM, Sacramento, Weather by CustomWeather, © 2014

Note: Actual official high and low records may vary slightly from our data, if they occured in-between our weather recording intervals... More about our weather records

Advertising

Sacramento weather history for previous 24 hours

 ConditionsComfort  
Time TempWeatherWind HumidityBarometerVisibility
11:53 PM
Sep 21
64 °FClear.8 mph78%29.95 "Hg10 mi
10:53 PM65 °FClear.5 mph78%29.95 "Hg10 mi
9:53 PM65 °FClear.3 mph76%29.95 "Hg10 mi
8:53 PM67 °FClear.5 mph71%29.94 "Hg10 mi
7:53 PM70 °FSunny.7 mph61%29.92 "Hg10 mi
6:53 PM74 °FSunny.9 mph57%29.91 "Hg10 mi
5:53 PM80 °FSunny.7 mph47%29.90 "Hg10 mi
4:53 PM79 °FSunny.8 mph48%29.90 "Hg10 mi
3:53 PM80 °FSunny.8 mph45%29.91 "Hg10 mi
2:53 PM80 °FSunny.8 mph44%29.91 "Hg10 mi
1:53 PM81 °FSunny.7 mph41%29.93 "Hg10 mi
12:53 PM80 °FSunny.10 mph42%29.94 "Hg10 mi
11:53 AM75 °FSunny.6 mph54%29.96 "Hg10 mi
10:53 AM73 °FSunny.9 mph55%29.96 "Hg10 mi
9:53 AM70 °FSunny.8 mph64%29.95 "Hg10 mi
8:53 AM66 °FSunny.7 mph73%29.93 "Hg10 mi
7:53 AM64 °FSunny.7 mph78%29.92 "Hg10 mi
6:53 AM63 °FClear.7 mph81%29.91 "Hg10 mi
5:53 AM64 °FClear.5 mph78%29.89 "Hg10 mi
4:53 AM64 °FClear.6 mph78%29.88 "Hg10 mi
3:53 AM64 °FClear.8 mph75%29.86 "Hg10 mi
2:53 AM65 °FPassing clouds.5 mph73%29.85 "Hg10 mi
1:53 AM65 °FPassing clouds.5 mph76%29.87 "Hg10 mi
Weather by CustomWeather, © 2014

See weather overviewHow to use our weather pages